Terminal Aerodrome Forecast
Issued by NWS Caribou, ME

Home | Current Version | Previous Version | Text Only | Print | Product List | Glossary On
Versions: 1 2 3 4 5 6 7 8 9 10 11 12 13 14 15 16 17 18
000
FTUS41 KCAR 290100 AAB
TAFCAR
TAF AMD
KCAR 290138Z 2902/2924 34010KT 6SM -SHRA OVC013
      TEMPO 2902/2904 BKN009
     FM290400 35008KT P6SM SCT030
     FM290700 34006KT P6SM FEW050=

USA.gov is the U.S. government's official web portal to all federal, state and local government web resources and services.